Wharton, TX

2:08 PM CDT on October 18, 2019 (GMT -0500)
Wharton Regional

Weather History for KARM - September, 2019

Change the Weather History Date:

Monday, September 16, 2019

  Actual Average (WUND) Record (WUND)
Temperature  
Mean Temperature 81 °F -  
Max Temperature 91 °F - - (-1)
Min Temperature 71 °F - - (-1)
Cooling Degree Days 16    
Growing Degree Days 31 (Base 50)    
Moisture  
Dew Point 70 °F    
Average Humidity 77    
Maximum Humidity 93    
Minimum Humidity 42    
Precipitation  
Precipitation 0.13 in - - ()
Sea Level Pressure  
Sea Level Pressure 29.96 in    
Wind  
Wind Speed 5 mph ()    
Max Wind Speed 15 mph    
Max Gust Speed 29 mph    
Visibility 9.7 miles    
Events Rain    
Averages and records for this station are not official NWS values.
T = Trace of Precipitation, MM = Missing Value Source: Averaged Metar Reports

Daily Weather History Graph

Daily Weather History Graph

Search for Another Location

Airport or City:

Astronomy

Sep. 16, 2019 Rise Set
Actual Time 7:09 AM CDT 7:28 PM CDT
Civil Twilight 6:46 AM CDT 7:52 PM CDT
Nautical Twilight 6:18 AM CDT 8:20 PM CDT
Astronomical Twilight 5:50 AM CDT 8:48 PM CDT
Moon 9:13 PM CDT (9/16) 9:10 AM CDT (9/16)
Length of Visible Light 13h 06m
Length of Day
12h 18m
Waning Gibbous, 94% of the Moon is Illuminated
Sep 16
Waning Gibbous
Sep 21
Last Quarter
Sep 28
New
Oct 5
First Quarter
Oct 13
Full

Hourly Weather History & Observations

Time (CDT) Temp. Heat Index Dew Point Humidity Pressure Visibility Wind Dir Wind Speed Gust Speed Precip Events Conditions
12:15 AM 73.8 °F - 69.8 °F 87% 29.99 in 10.0 mi Calm Calm - N/A   Clear
12:35 AM 74.1 °F - 69.8 °F 86% 29.99 in 10.0 mi Calm Calm - N/A   Clear
12:55 AM 73.4 °F - 69.4 °F 87% 30.00 in 10.0 mi Calm Calm - N/A   Clear
1:15 AM 73.0 °F - 69.8 °F 90% 30.01 in 10.0 mi Calm Calm - N/A   Clear
1:35 AM 72.9 °F - 69.6 °F 90% 30.00 in 10.0 mi NNW 3.5 mph - N/A   Clear
1:55 AM 73.0 °F - 70.2 °F 91% 30.00 in 10.0 mi Calm Calm - N/A   Clear
2:15 AM 72.7 °F - 69.8 °F 91% 30.00 in 10.0 mi Calm Calm - N/A   Clear
2:55 AM 72.7 °F - 70.0 °F 91% 29.99 in 10.0 mi North 3.5 mph - N/A   Clear
3:15 AM 73.0 °F - 70.2 °F 91% 29.99 in 10.0 mi North 4.6 mph - N/A   Clear
3:35 AM 72.3 °F - 69.4 °F 91% 29.99 in 10.0 mi North 4.6 mph - N/A   Clear
3:55 AM 72.5 °F - 69.6 °F 91% 29.99 in 10.0 mi North 3.5 mph - N/A   Clear
4:15 AM 72.0 °F - 69.6 °F 92% 29.99 in 10.0 mi NNW 3.5 mph - N/A   Clear
4:35 AM 72.0 °F - 69.4 °F 92% 29.99 in 10.0 mi North 3.5 mph - N/A   Clear
4:55 AM 72.1 °F - 69.8 °F 92% 29.99 in 10.0 mi Calm Calm - N/A   Clear
5:15 AM 71.4 °F - 68.9 °F 92% 29.98 in 10.0 mi NNW 3.5 mph - N/A   Clear
5:35 AM 71.6 °F - 69.1 °F 92% 29.99 in 10.0 mi North 3.5 mph - N/A   Clear
5:50 AM 71.6 °F - 69.3 °F 92% 29.98 in 7.0 mi North 3.5 mph - N/A   Clear
6:15 AM 71.4 °F - 69.1 °F 92% 29.98 in 7.0 mi North 3.5 mph - N/A   Clear
6:30 AM 71.6 °F - 69.4 °F 93% 29.98 in 10.0 mi North 5.8 mph - N/A   Clear
6:55 AM 72.0 °F - 69.8 °F 93% 29.98 in 10.0 mi North 5.8 mph - N/A   Clear
7:15 AM 72.0 °F - 69.8 °F 93% 29.99 in 10.0 mi North 5.8 mph - N/A   Clear
7:35 AM 72.1 °F - 69.8 °F 92% 29.99 in 7.0 mi North 4.6 mph - N/A   Clear
7:55 AM 72.9 °F - 70.5 °F 92% 29.99 in 7.0 mi North 4.6 mph - N/A   Clear
8:15 AM 74.3 °F - 71.2 °F 90% 29.99 in 10.0 mi NNW 5.8 mph - N/A   Clear
8:35 AM 75.7 °F - 71.1 °F 85% 29.99 in 10.0 mi North 8.1 mph - N/A   Clear
8:55 AM 77.5 °F - 70.9 °F 80% 29.99 in 10.0 mi North 9.2 mph - N/A   Clear
9:15 AM 79.9 °F - 70.7 °F 73% 30.00 in 10.0 mi North 9.2 mph - N/A   Clear
9:35 AM 82.0 °F 86.1 °F 70.5 °F 68% 30.01 in 10.0 mi North 6.9 mph - N/A   Clear
9:55 AM 83.7 °F 87.7 °F 69.8 °F 63% 30.01 in 10.0 mi North 12.7 mph - N/A   Clear
10:15 AM 85.1 °F 89.4 °F 69.8 °F 60% 30.01 in 10.0 mi North 15.0 mph - N/A   Clear
10:35 AM 86.4 °F 91.1 °F 70.0 °F 58% 30.01 in 10.0 mi North 11.5 mph 16.1 mph N/A   Clear
11:00 AM 86.4 °F 90.4 °F 68.9 °F 56% 30.00 in 10.0 mi North 13.8 mph 17.3 mph N/A   Scattered Clouds
11:15 AM 85.8 °F 89.4 °F 68.4 °F 56% 30.00 in 10.0 mi North 11.5 mph 16.1 mph N/A   Mostly Cloudy
11:30 AM 87.3 °F 90.5 °F 67.8 °F 52% 29.99 in 10.0 mi NNE 10.4 mph 16.1 mph N/A   Mostly Cloudy
11:55 AM 86.9 °F 89.9 °F 67.3 °F 52% 29.99 in 10.0 mi NE 8.1 mph - N/A   Scattered Clouds
12:15 PM 88.2 °F 91.3 °F 67.3 °F 50% 29.98 in 10.0 mi NNE 10.4 mph 16.1 mph N/A   Mostly Cloudy
12:35 PM 87.8 °F 90.4 °F 66.6 °F 49% 29.98 in 10.0 mi NE 9.2 mph - N/A   Mostly Cloudy
12:55 PM 88.9 °F 91.0 °F 65.8 °F 46% 29.97 in 10.0 mi NE 11.5 mph 17.3 mph N/A   Mostly Cloudy
1:15 PM 87.8 °F 89.7 °F 65.5 °F 47% 29.96 in 10.0 mi NE 11.5 mph 19.6 mph N/A   Overcast
1:35 PM 91.6 °F 93.9 °F 65.3 °F 42% 29.95 in 10.0 mi NE 10.4 mph - N/A   Scattered Clouds
1:55 PM 88.5 °F 90.1 °F 64.6 °F 45% 29.94 in 10.0 mi ENE 8.1 mph 16.1 mph N/A   Mostly Cloudy
2:15 PM 88.9 °F 90.3 °F 64.6 °F 44% 29.94 in 10.0 mi ENE 11.5 mph 17.3 mph N/A   Overcast
2:30 PM 88.7 °F 90.4 °F 64.9 °F 45% 29.93 in 10.0 mi ENE 8.1 mph - N/A   Overcast
2:55 PM 80.6 °F 83.6 °F 69.1 °F 68% 29.93 in 10.0 mi ENE 10.4 mph - N/A   Overcast
3:15 PM 84.7 °F 88.8 °F 69.4 °F 60% 29.93 in 10.0 mi NE 8.1 mph - N/A   Mostly Cloudy
3:35 PM 87.3 °F 91.6 °F 69.4 °F 55% 29.92 in 10.0 mi NE 11.5 mph 21.9 mph N/A   Scattered Clouds
3:55 PM 87.8 °F 91.1 °F 67.8 °F 51% 29.91 in 10.0 mi East 13.8 mph 21.9 mph N/A   Scattered Clouds
4:15 PM 89.4 °F 92.7 °F 67.1 °F 48% 29.90 in 10.0 mi NE 10.4 mph 20.7 mph N/A   Scattered Clouds
4:35 PM 88.0 °F 91.4 °F 67.8 °F 51% 29.90 in 10.0 mi ENE 11.5 mph 17.3 mph N/A   Mostly Cloudy
4:55 PM 88.3 °F 91.2 °F 66.9 °F 49% 29.90 in 10.0 mi ENE 12.7 mph 21.9 mph N/A   Mostly Cloudy
5:15 PM 86.7 °F 90.3 °F 68.0 °F 54% 29.90 in 10.0 mi ENE 9.2 mph 19.6 mph N/A   Overcast
5:35 PM 78.1 °F - 70.7 °F 78% 29.92 in 3.0 mi East 12.7 mph 28.8 mph 0.10 in Rain Rain
5:55 PM 76.1 °F - 70.9 °F 84% 29.91 in 7.0 mi ENE 8.1 mph - 0.13 in Rain Light Rain
6:15 PM 76.3 °F - 71.8 °F 86% 29.91 in 10.0 mi ENE 5.8 mph - N/A   Light Drizzle
6:35 PM 77.0 °F - 72.3 °F 85% 29.91 in 10.0 mi ENE 5.8 mph - N/A   Clear
6:55 PM 77.0 °F - 72.5 °F 86% 29.91 in 10.0 mi ENE 5.8 mph - N/A   Clear
7:15 PM 77.4 °F - 72.7 °F 85% 29.91 in 10.0 mi ENE 4.6 mph - N/A   Clear
7:35 PM 77.0 °F - 72.7 °F 86% 29.91 in 10.0 mi Calm Calm - N/A   Scattered Clouds
7:55 PM 76.3 °F - 72.7 °F 89% 29.91 in 10.0 mi NE 3.5 mph - N/A   Clear
8:15 PM 76.1 °F - 72.7 °F 89% 29.91 in 10.0 mi NE 3.5 mph - N/A   Clear
8:35 PM 76.3 °F - 72.9 °F 89% 29.91 in 10.0 mi Calm Calm - N/A   Mostly Cloudy
8:55 PM 76.1 °F - 72.7 °F 89% 29.92 in 10.0 mi NE 4.6 mph - N/A   Scattered Clouds
9:15 PM 76.1 °F - 72.5 °F 89% 29.93 in 10.0 mi NE 3.5 mph - N/A   Scattered Clouds
9:35 PM 75.7 °F - 72.0 °F 88% 29.93 in 10.0 mi NE 3.5 mph - N/A   Scattered Clouds
9:55 PM 75.7 °F - 72.0 °F 88% 29.93 in 10.0 mi NE 4.6 mph - N/A   Scattered Clouds
10:35 PM 75.2 °F - 72.0 °F 90% 29.93 in 10.0 mi NNE 4.6 mph - N/A   Scattered Clouds
10:55 PM 75.2 °F - 72.3 °F 91% 29.93 in 10.0 mi NE 4.6 mph - N/A   Scattered Clouds
11:15 PM 75.2 °F - 72.5 °F 91% 29.93 in 10.0 mi NE 3.5 mph - N/A   Scattered Clouds
11:35 PM 75.2 °F - 72.5 °F 91% 29.92 in 10.0 mi NNE 4.6 mph - N/A   Clear
11:55 PM 74.8 °F - 72.1 °F 91% 29.92 in 10.0 mi Calm Calm - N/A   Clear